SCP
0 0 1 1 1 1 1 1 1 1 1 0 0 1 1 1 1 1 0 0 0 0 0 0 0 0 0 0 0 0 0 0
0 1 2 1 1 1 1 1 1 0 0 0 1 0 1 1 1 1 1 1 1 1 1 1 1 0 0 0 0 0 0 0
0 0 0 1 1 1 1 0 0 0 0 0 0 1 1 1 1 1 1 1 1 1 1 1 1 1 0 0 0 0 0 0
0 0 0 0 1 1 2 1 1 1 1 1 1 1 1 1 1 1 1 1 1 1 1 1 1 2 1 0 0 0 0 0
0 0 0 0 0 0 0 2 1 1 0 0 1 2 2 1 1 0 1 1 1 1 1 1 2 2 1 1 1 1 0 0
0 0 0 0 0 0 0 0 0 0 0 0 0 0 0 0 0 1 1 1 1 1 1 1 1 1 1 1 1 1 1 0
0 0 0 0 0 0 0 0 0 0 0 0 0 0 0 0 0 0 0 0 0 0 0 0 0 0 0 0 0 0 0 0
0 0 0 0 0 0 0 0 0 0 0 0 0 0 0 0 0 0 0 0 0 0 0 0 0 0 0 -0 0 0 0 0
0 0 0 0 0 0 0 0 0 0 0 0 0 0 0 0 0 0 0 0 0 0 0 0 0 0 0 -0 -0 0 0 -0
0 0 0 0 0 0 0 0 0 0 0 0 0 0 0 0 0 0 0 0 0 0 0 0 0 0 0 0 0 0 0 -0
0 0 0 0 0 0 0 0 0 0 0 0 0 0 0 0 0 0 0 0 0 0 0 0 0 0 0 0 0 0 -0 -0
0 0 0 0 0 0 0 0 0 0 0 0 0 0 0 0 0 0 0 0 0 0 0 0 0 0 0 0 0 0 0 0
0 0 0 0 0 0 0 0 0 0 0 0 0 0 0 0 0 0 0 0 0 0 0 0 0 0 0 0 0 0 0 0
0 0 0 0 0 0 0 0 0 0 0 0 0 0 0 0 0 0 0 0 0 0 0 0 0 0 0 0 0 0 0 0
0 0 0 0 0 0 0 0 0 0 0 0 0 0 0 0 0 0 0 0 0 0 0 0 0 0 0 0 0 0 0 0
0 0 0 0 0 0 0 0 0 0 0 0 0 0 0 0 0 0 0 0 0 0 0 0 0 0 0 0 0 0 0 0
0 0 0 0 0 0 0 0 0 -0 -0 0 0 0 0 0 0 0 0 0 0 0 0 0 0 0 0 0 0 0 0 0
0 0 0 0 0 0 0 0 0 -0 -0 -0 -0 -0 0 0 0 0 0 0 0 0 0 0 0 0 0 0 0 0 0 0
0 0 0 0 0 0 0 0 0 0 -0 -0 -0 -0 0 0 0 0 0 0 0 0 0 0 0 0 0 0 0 0 0 0
0 0 0 0 0 0 0 0 0 0 0 0 0 0 0 0 0 0 0 0 0 0 0 0 0 0 0 0 0 0 0 0
Wind_Speed_500mb
17 16 11 5 7 12 14 15 18 20 22 24 26 28 30 31 33 36 37 37 36 36 36 35 35 36 34 32 29 25 23 27
12 8 5 10 16 12 11 14 17 20 23 27 29 32 33 34 35 38 40 43 44 44 44 41 42 42 40 38 36 32 29 30
16 7 3 8 13 14 19 16 22 19 24 29 30 30 33 36 35 36 42 46 49 51 52 50 50 49 49 45 41 39 33 32
12 16 18 18 17 15 12 14 10 9 18 13 12 18 20 25 29 31 35 41 51 57 58 59 56 60 57 53 51 45 40 35
16 16 21 29 27 17 4 11 25 23 33 30 25 23 24 27 29 30 38 41 49 52 61 64 69 68 66 60 57 52 47 40
20 20 23 35 35 27 15 12 18 26 31 28 22 27 31 32 27 30 34 35 45 50 61 63 64 72 72 62 58 58 49 37
20 20 15 16 23 27 22 11 13 20 17 21 27 34 30 34 37 36 34 35 41 49 57 58 62 59 57 41 24 59 55 47
18 16 15 12 14 16 15 13 18 14 16 26 30 26 28 30 30 31 35 39 44 48 49 51 54 58 52 48 51 24 42 51
13 14 14 12 12 19 18 17 12 12 11 18 19 22 25 27 32 34 33 34 37 35 36 36 37 39 40 38 29 53 61 68
18 15 13 14 13 12 17 18 22 21 21 21 19 19 25 26 30 31 32 35 38 37 32 31 30 25 21 16 23 41 57 84
17 15 14 13 8 4 9 11 19 24 26 25 24 22 23 21 22 24 23 23 21 26 26 23 23 22 18 15 14 23 41 71
13 15 15 14 13 8 10 11 16 19 28 31 35 32 31 28 26 27 27 27 27 24 27 21 18 18 26 29 26 35 46 55
16 15 16 13 10 10 10 16 12 14 24 27 31 33 34 34 34 31 29 30 30 28 29 28 22 22 23 23 38 46 49 52
11 16 18 18 20 18 10 4 9 16 24 25 32 33 35 37 38 39 37 33 31 28 30 28 26 14 19 20 19 28 34 43
5 10 14 18 20 20 16 8 10 19 29 31 32 32 38 37 39 42 44 42 40 35 31 26 31 26 13 9 10 10 30 37
8 10 12 17 20 23 26 29 31 34 36 38 35 36 40 43 43 44 43 40 38 36 35 34 27 33 27 33 27 26 15 34
8 7 9 13 16 20 23 26 28 31 33 36 37 37 38 41 43 41 39 38 37 35 33 30 29 30 32 38 39 50 41 36
14 8 7 9 13 18 22 25 29 33 36 39 42 43 43 45 45 42 40 38 37 36 35 30 28 24 25 32 33 24 32 32
15 9 8 7 9 13 18 22 26 30 34 37 39 42 44 47 47 44 42 39 37 35 33 30 28 27 26 28 32 40 40 42
16 8 5 5 4 8 13 18 22 25 27 30 33 36 40 42 42 41 41 41 38 35 31 30 30 29 27 25 29 32 39 45
Wind_Direction_500mb
33 32 28 1 282 268 261 260 259 261 263 262 260 256 251 246 246 249 249 252 256 259 260 259 256 255 253 251 247 240 225 213
106 96 101 20 340 314 286 286 286 276 269 264 263 264 262 257 251 251 252 252 255 258 259 262 261 259 256 255 251 245 234 221
158 188 248 291 277 313 317 323 328 311 293 278 269 269 272 270 265 265 261 258 257 256 256 257 259 259 258 256 256 253 247 232
164 193 226 229 230 250 245 253 255 274 304 284 281 264 272 276 273 269 270 265 261 260 259 256 256 258 256 256 253 252 248 243
282 252 231 235 233 243 236 266 220 260 239 249 247 257 268 262 263 269 272 275 262 258 258 257 257 257 256 254 256 254 251 244
293 288 272 248 250 260 279 210 205 228 247 253 249 258 257 263 271 269 272 273 274 275 271 270 266 262 260 262 266 264 250 252
321 320 311 290 266 266 271 286 255 252 252 254 258 266 286 285 272 271 270 268 272 272 273 271 271 271 266 232 322 246 249 254
342 343 342 331 326 318 330 316 275 294 286 275 273 279 285 288 300 296 291 277 277 280 281 280 282 278 276 332 312 258 247 248
14 16 19 20 20 24 7 10 337 318 315 296 299 306 308 298 288 288 293 299 295 298 293 294 289 299 316 333 225 242 223 234
33 41 40 57 60 45 21 18 354 349 341 342 336 328 306 303 294 289 287 286 289 289 293 293 288 312 309 332 216 206 228 226
34 43 44 61 98 30 37 32 0 348 336 344 343 334 325 319 310 305 307 301 298 291 299 305 298 291 301 292 283 266 233 234
28 47 52 55 60 40 42 45 29 350 341 350 344 343 339 332 320 314 315 312 306 296 289 290 289 291 260 258 254 244 241 245
358 9 24 13 11 38 34 38 0 337 328 338 330 336 331 325 321 326 319 317 313 308 296 295 288 286 298 268 251 249 250 252
347 359 23 31 29 41 43 50 327 318 315 324 325 325 318 317 315 315 317 317 311 308 302 296 292 289 298 309 301 275 265 259
52 69 62 51 46 48 47 27 341 339 346 343 337 329 315 314 312 313 313 312 312 312 308 294 287 280 252 310 303 275 282 266
110 95 65 53 43 35 26 16 9 1 349 343 333 327 318 317 318 318 319 318 311 313 313 307 291 278 267 228 232 257 288 294
164 111 72 58 41 31 24 18 9 0 350 344 340 335 328 326 328 328 329 333 336 332 329 323 315 297 281 280 249 243 247 264
188 162 100 59 42 29 17 10 3 355 351 348 347 345 343 342 343 345 342 339 335 335 337 335 335 324 303 283 282 282 256 269
203 183 129 83 40 23 13 4 359 356 355 355 354 356 358 1 360 1 358 352 345 340 342 347 343 327 310 302 280 270 272 275
208 202 154 120 47 12 8 1 358 357 0 1 3 8 13 12 12 12 7 360 356 0 3 1 352 341 325 313 298 287 277 274
Wind_Speed_850mb
17 16 11 5 7 12 14 15 18 20 22 24 26 28 30 31 33 36 37 37 36 36 36 35 35 36 34 32 29 25 23 27
12 8 5 10 16 12 11 14 17 20 23 27 29 32 33 34 35 38 40 43 44 44 44 41 42 42 40 38 36 32 29 30
16 7 3 8 13 14 19 16 22 19 24 29 30 30 33 36 35 36 42 46 49 51 52 50 50 49 49 45 41 39 33 32
12 16 18 18 17 15 12 14 10 9 18 13 12 18 20 25 29 31 35 41 51 57 58 59 56 60 57 53 51 45 40 35
16 16 21 29 27 17 4 11 25 23 33 30 25 23 24 27 29 30 38 41 49 52 61 64 69 68 66 60 57 52 47 40
20 20 23 35 35 27 15 12 18 26 31 28 22 27 31 32 27 30 34 35 45 50 61 63 64 72 72 62 58 58 49 37
20 20 15 16 23 27 22 11 13 20 17 21 27 34 30 34 37 36 34 35 41 49 57 58 62 59 57 41 24 59 55 47
18 16 15 12 14 16 15 13 18 14 16 26 30 26 28 30 30 31 35 39 44 48 49 51 54 58 52 48 51 24 42 51
13 14 14 12 12 19 18 17 12 12 11 18 19 22 25 27 32 34 33 34 37 35 36 36 37 39 40 38 29 53 61 68
18 15 13 14 13 12 17 18 22 21 21 21 19 19 25 26 30 31 32 35 38 37 32 31 30 25 21 16 23 41 57 84
17 15 14 13 8 4 9 11 19 24 26 25 24 22 23 21 22 24 23 23 21 26 26 23 23 22 18 15 14 23 41 71
13 15 15 14 13 8 10 11 16 19 28 31 35 32 31 28 26 27 27 27 27 24 27 21 18 18 26 29 26 35 46 55
16 15 16 13 10 10 10 16 12 14 24 27 31 33 34 34 34 31 29 30 30 28 29 28 22 22 23 23 38 46 49 52
11 16 18 18 20 18 10 4 9 16 24 25 32 33 35 37 38 39 37 33 31 28 30 28 26 14 19 20 19 28 34 43
5 10 14 18 20 20 16 8 10 19 29 31 32 32 38 37 39 42 44 42 40 35 31 26 31 26 13 9 10 10 30 37
8 10 12 17 20 23 26 29 31 34 36 38 35 36 40 43 43 44 43 40 38 36 35 34 27 33 27 33 27 26 15 34
8 7 9 13 16 20 23 26 28 31 33 36 37 37 38 41 43 41 39 38 37 35 33 30 29 30 32 38 39 50 41 36
14 8 7 9 13 18 22 25 29 33 36 39 42 43 43 45 45 42 40 38 37 36 35 30 28 24 25 32 33 24 32 32
15 9 8 7 9 13 18 22 26 30 34 37 39 42 44 47 47 44 42 39 37 35 33 30 28 27 26 28 32 40 40 42
16 8 5 5 4 8 13 18 22 25 27 30 33 36 40 42 42 41 41 41 38 35 31 30 30 29 27 25 29 32 39 45
Wind_Direction_850mb
33 32 28 1 282 268 261 260 259 261 263 262 260 256 251 246 246 249 249 252 256 259 260 259 256 255 253 251 247 240 225 213
106 96 101 20 340 314 286 286 286 276 269 264 263 264 262 257 251 251 252 252 255 258 259 262 261 259 256 255 251 245 234 221
158 188 248 291 277 313 317 323 328 311 293 278 269 269 272 270 265 265 261 258 257 256 256 257 259 259 258 256 256 253 247 232
164 193 226 229 230 250 245 253 255 274 304 284 281 264 272 276 273 269 270 265 261 260 259 256 256 258 256 256 253 252 248 243
282 252 231 235 233 243 236 266 220 260 239 249 247 257 268 262 263 269 272 275 262 258 258 257 257 257 256 254 256 254 251 244
293 288 272 248 250 260 279 210 205 228 247 253 249 258 257 263 271 269 272 273 274 275 271 270 266 262 260 262 266 264 250 252
321 320 311 290 266 266 271 286 255 252 252 254 258 266 286 285 272 271 270 268 272 272 273 271 271 271 266 232 322 246 249 254
342 343 342 331 326 318 330 316 275 294 286 275 273 279 285 288 300 296 291 277 277 280 281 280 282 278 276 332 312 258 247 248
14 16 19 20 20 24 7 10 337 318 315 296 299 306 308 298 288 288 293 299 295 298 293 294 289 299 316 333 225 242 223 234
33 41 40 57 60 45 21 18 354 349 341 342 336 328 306 303 294 289 287 286 289 289 293 293 288 312 309 332 216 206 228 226
34 43 44 61 98 30 37 32 0 348 336 344 343 334 325 319 310 305 307 301 298 291 299 305 298 291 301 292 283 266 233 234
28 47 52 55 60 40 42 45 29 350 341 350 344 343 339 332 320 314 315 312 306 296 289 290 289 291 260 258 254 244 241 245
358 9 24 13 11 38 34 38 0 337 328 338 330 336 331 325 321 326 319 317 313 308 296 295 288 286 298 268 251 249 250 252
347 359 23 31 29 41 43 50 327 318 315 324 325 325 318 317 315 315 317 317 311 308 302 296 292 289 298 309 301 275 265 259
52 69 62 51 46 48 47 27 341 339 346 343 337 329 315 314 312 313 313 312 312 312 308 294 287 280 252 310 303 275 282 266
110 95 65 53 43 35 26 16 9 1 349 343 333 327 318 317 318 318 319 318 311 313 313 307 291 278 267 228 232 257 288 294
164 111 72 58 41 31 24 18 9 0 350 344 340 335 328 326 328 328 329 333 336 332 329 323 315 297 281 280 249 243 247 264
188 162 100 59 42 29 17 10 3 355 351 348 347 345 343 342 343 345 342 339 335 335 337 335 335 324 303 283 282 282 256 269
203 183 129 83 40 23 13 4 359 356 355 355 354 356 358 1 360 1 358 352 345 340 342 347 343 327 310 302 280 270 272 275
208 202 154 120 47 12 8 1 358 357 0 1 3 8 13 12 12 12 7 360 356 0 3 1 352 341 325 313 298 287 277 274